DELTA 1 DEB, 10765

Orbit data source: Space-Track

DELTA 1 DEB, 10765 is space debris in SSO originally from a launch on Thu, 29 Jul 1976 UTC launched from the Air Force Western Test Range (AFWTR). Debris objects in space refer to the collection of defunct objects orbiting the Earth. Examples of debris include non-operational satellites, rocket bodies, and fragments generated from explosions, collisions, or faulty payload assembly.

Loading next visibility...
Identifier
10765, 1976-077BN
Orbit
SSO
Country
Flag of USUS
Related business
Manufacturer
Unknown
Mission
Spacecraft
Bus & Motor
Unknown
Mass
Unknown
Launch date (UTC)
1976-07-29 (50 years ago)
Launch vehicle
Unknown
Launch site
Air Force Western Test Range (AFWTR)
Object type
Payload
Rocket body
Debris
Shape & HBR
Unknown shape, 0.5 m
Radar Cross Section
Medium (>0.1 m² and <1 m²)

Expand to show TLE details & history
Last TLE update: 19 hours ago

TLE from 19 hours ago
0 DELTA 1 DEB
1 10765U 76077BN  26255.26957325 -.00000032  00000-0  98957-4 0  9993
2 10765 101.9950  87.4646 0130544 209.0477 326.1661 12.16527389227142
Epoch: 2026-09-12T06:28Z
TLE epoch observation values (Epoch: 2026-09-12T06:28:11.128Z)
Latitude
5.43426°
Longitude
-179.71028°
Altitude
1,523.501 km
Speed
7.142 km/s
True Right ascension
17h 54m 28s
True Declination
5° 24' 18"
Sunlit
Object was in daylight at epoch
Visualization orbit readout
Latitude
Unknown
Longitude
Unknown
Altitude
Unknown
Speed
Unknown
Apparent Right ascension
Unknown
Apparent Declination
Unknown
Sunlit
N/A
Visualization observer readout
Local Sidereal Time
17:33:41
Azimuth
Unknown
Elevation
Unknown
Doppler factor
Unknown
Orbital elements
Apogee altitude
1,709.526 km
Perigee altitude
1,501.088 km
Semi-major axis
7,983.444 km
Eccentricity
0.01305
Inclination
101.995°
RAAN
87.4646°
Arg. of periapsis
209.0477°
True anomaly
325.32178°
Mean anomaly
326.1661°
Eccentric anomaly
325.74509°
Mean motion
3.04269 °/min
Orbital period
118.32 mins
BSTAR
0.000098957
Loading maneuver chart data...
Computing Atmospheric mass density...
Loading historical data...
Loading historical data...
Loading historical data...
Loading historical data...
Loading historical data...
Loading historical data...
Loading historical data...

Documentation

Showing up to 5 results
|